[[{"header":{"parameterUnit":"m.s-1","parameterCategory":1,"la1":30.2991,"la2":30.254,"lo1":-89.0895,"lo2":-89.0444,"dy":0.0017,"dx":0.0017,"nx":28,"ny":28,"refTime":"2024-02-18T09:00:00:Z","depth":0,"parameterNumber":2,"parameterNumberName":"U-component_of_WINDS"},"data":[0,0,0,0,0,0,0,0,0,0,0,0,0,0,0,0,0,0,0,0,0,0,0,0,0,0,0,0,0,0,0,0,0,0,0,0,0,0,0,0,0,0,0,0,0,0,0,0,0,0,0,0,0,0,0,0,0,0,1.6092,1.6094,0,1.622,1.6221,1.6223,1.6278,1.6278,1.6278,1.6277,1.6411,1.6414,1.6418,0,0,0,0,0,0,0,0,0,0,0,0,0,1.5899,1.5903,1.6092,1.6094,1.6095,1.6219,1.6221,1.6223,1.6278,1.6278,1.6277,1.6277,1.641,1.6414,1.6418,0,0,0,0,0,0,0,0,0,0,0,0,0,1.6001,1.5904,1.6092,1.6138,1.6143,1.6219,1.6221,1.6223,1.6278,1.6278,1.6277,1.6277,1.6408,1.6414,1.6419,1.646,0,0,1.6436,1.6439,0,0,0,0,0,0,0,0,1.5995,1.6008,1.6129,1.6135,1.6141,1.6232,1.6202,1.6303,1.6278,1.6227,1.6277,1.6277,1.6352,1.6362,1.6387,1.6466,1.6472,1.6437,1.644,1.6443,1.6444,0,0,0,0,0,0,0,1.5988,1.6002,1.6143,1.6131,1.6138,1.6153,1.6167,1.6221,1.629,1.6231,1.6236,1.625,1.6355,1.6381,1.639,1.6474,1.6437,1.6442,1.6445,1.6447,1.6594,1.6594,0,0,0,0,0,0,1.5973,1.5996,1.6139,1.6146,1.6065,1.6156,1.6172,1.6203,1.6289,1.6302,1.625,1.6252,1.6372,1.6384,1.6395,1.6449,1.6442,1.6448,1.6451,1.6593,1.6594,1.6595,0,0,0,0,0,0,1.5968,1.5985,1.6133,1.6073,1.6093,1.616,1.6195,1.6206,1.6232,1.6303,1.6316,1.6264,1.6372,1.6387,1.6443,1.6454,1.645,1.6455,1.6593,1.6594,1.6594,1.6556,0,0,0,0,0,0,1.5963,1.5983,1.5998,1.6072,1.6096,1.6178,1.6195,1.6209,1.6242,1.6245,1.632,1.6332,1.6373,1.6435,1.6449,1.6462,1.646,1.6592,1.6593,1.6594,1.6557,1.6556,1.6555,0,0,0,0,0,1.5955,1.5983,1.5999,1.6016,1.6116,1.6179,1.6192,1.6238,1.6242,1.6259,1.6304,1.633,1.6451,1.644,1.6456,1.6471,1.6592,1.6593,1.6594,1.6557,1.6556,1.6555,0,0,0,0,0,0,1.591,1.5994,1.6012,1.6064,1.6114,1.6188,1.621,1.6235,1.6285,1.6287,1.6343,1.6359,1.641,1.6447,1.6433,1.6516,1.6523,1.6528,1.649,1.6489,1.6488,1.6478,1.6464,0,0,0,0,0,1.5905,1.5948,1.602,1.6059,1.6083,1.6142,1.6171,1.6202,1.6256,1.6278,1.6328,1.638,1.643,1.6462,1.6512,1.6563,1.658,1.6581,1.658,1.6579,1.6582,1.6612,1.6614,1.6598,1.6598,1.6598,0,0,1.5898,1.5949,1.5973,1.6051,1.6093,1.6137,1.616,1.6205,1.6239,1.6285,1.6341,1.6379,1.6441,1.6495,1.6521,1.6527,1.659,1.658,1.6579,1.6583,1.6614,1.6615,1.6616,1.6599,1.6599,1.6599,0,0,1.5906,1.5948,1.5986,1.6027,1.6091,1.613,1.6139,1.6209,1.6236,1.6293,1.6328,1.637,1.6455,1.6497,1.653,1.6555,1.658,1.657,1.6564,1.6593,1.6594,1.6595,1.6604,1.6607,1.6573,1.6573,1.6572,0,1.5888,1.5955,1.6002,1.6046,1.608,1.6123,1.6162,1.62,1.6277,1.63,1.6305,1.6412,1.6457,1.6521,1.6527,1.6552,1.6565,1.6561,1.659,1.6592,1.6594,1.6603,1.6606,1.6571,1.6571,1.6571,1.6571,0,1.5931,1.5976,1.5999,1.6071,1.6108,1.6149,1.6203,1.6235,1.6263,1.6301,1.6359,1.6414,1.6476,1.6494,1.6522,1.6563,1.6564,1.6579,1.6588,1.6592,1.6602,1.6606,1.6568,1.6569,1.657,1.657,0,0,1.5913,1.6011,1.6018,1.6051,1.6124,1.6161,1.6205,1.6264,1.629,1.6342,1.638,1.6451,1.6465,1.6502,1.6536,1.6561,1.6577,1.6573,1.6575,1.6572,1.6626,1.6614,1.6618,1.6594,1.6595,1.6596,1.6621,0,1.5932,1.601,1.6054,1.6115,1.6158,1.62,1.6238,1.6287,1.6325,1.6368,1.641,1.6459,1.6474,1.6497,1.6523,1.6569,1.6589,1.6568,1.6631,1.6633,1.6614,1.6623,1.6611,1.6632,1.6625,1.6625,1.6626,0,1.5963,1.6013,1.6077,1.6145,1.6165,1.6199,1.6257,1.6297,1.6355,1.638,1.6422,1.6455,1.6503,1.6508,1.6576,1.6561,1.6589,1.6616,1.6618,1.6626,1.6629,1.6631,1.664,1.6642,1.6632,1.6632,1.6631,0,1.5944,1.6028,1.6077,1.6104,1.6185,1.6207,1.6242,1.6299,1.6332,1.6383,1.6406,1.6462,1.6493,1.6537,1.6585,1.6584,1.6648,1.6657,1.6672,1.667,1.6683,1.6682,1.6697,1.6701,1.6701,1.6701,1.6701,0,1.596,1.5998,1.607,1.61,1.6144,1.6195,1.6238,1.6276,1.6326,1.6365,1.6405,1.6441,1.6502,1.6546,1.6584,1.6635,1.6649,1.6672,1.6681,1.6668,1.6665,1.6688,1.6688,1.6702,1.6702,1.6702,1.6701,0,1.5947,1.5996,1.6053,1.6124,1.6143,1.6172,1.6234,1.6266,1.6305,1.6355,1.6369,1.6432,1.6486,1.6538,1.661,1.6636,1.6687,1.6699,1.6667,1.6672,1.6684,1.6682,1.6714,1.6721,1.672,1.672,1.672,0,1.5954,1.5984,1.6058,1.6087,1.612,1.6166,1.62,1.6252,1.6285,1.6353,1.6376,1.6433,1.6481,1.6566,1.6618,1.6674,1.6689,1.6696,1.6697,1.6683,1.6689,1.6687,1.669,1.6695,1.6694,1.6694,1.6694,0,1.5961,1.5983,1.603,1.6085,1.6124,1.6171,1.6219,1.624,1.6301,1.6337,1.6392,1.6429,1.6503,1.6559,1.6621,1.6658,1.6687,1.6693,1.67,1.6687,1.6667,1.6678,1.6664,1.6692,1.6692,1.6693,1.6693,1.6693,1.5958,1.5987,1.6043,1.6094,1.6135,1.6179,1.6212,1.6256,1.6302,1.6366,1.6394,1.6449,1.6507,1.6592,1.6629,1.6674,1.6681,1.669,1.6693,1.6694,1.6691,1.6659,1.6686,1.6686,1.6686,1.6686,1.6686,0,1.5967,1.6006,1.6052,1.6117,1.6157,1.6179,1.6233,1.6266,1.6314,1.6364,1.6411,1.6474,1.6529,1.6586,1.6644,1.6669,1.6683,1.6683,1.6681,1.669,1.6682,1.6671,1.667,1.667,1.667,1.667,1.667,1.667,1.5977,1.6027,1.6056,1.6127,1.6166,1.622,1.6249,1.629,1.6331,1.6399,1.6445,1.6481,1.6534,1.6596,1.6648,1.6663,1.6683,1.6678,1.6697,1.6689,1.669,1.6691,1.6681,1.6682,1.6682,1.6701,1.6702,1.6702]},{"header":{"parameterUnit":"m.s-1","parameterCategory":1,"la1":30.2991,"la2":30.254,"lo1":-89.0895,"lo2":-89.0444,"dy":0.0017,"dx":0.0017,"nx":28,"ny":28,"refTime":"2024-02-18T09:00:00:Z","depth":0,"parameterNumber":3,"parameterNumberName":"V-component_of_WINDS"},"data":[0,0,0,0,0,0,0,0,0,0,0,0,0,0,0,0,0,0,0,0,0,0,0,0,0,0,0,0,0,0,0,0,0,0,0,0,0,0,0,0,0,0,0,0,0,0,0,0,0,0,0,0,0,0,0,0,0,0,0.2958,0.2958,0,0.292,0.292,0.2919,0.2902,0.2902,0.2902,0.2902,0.2862,0.2861,0.286,0,0,0,0,0,0,0,0,0,0,0,0,0,0.3013,0.3012,0.2958,0.2958,0.2957,0.292,0.292,0.2919,0.2902,0.2902,0.2902,0.2902,0.2863,0.2861,0.286,0,0,0,0,0,0,0,0,0,0,0,0,0,0.2983,0.3011,0.2958,0.2944,0.2942,0.292,0.292,0.2919,0.2902,0.2902,0.2902,0.2902,0.2863,0.2862,0.286,0.285,0,0,0.2855,0.2854,0,0,0,0,0,0,0,0,0.2985,0.2981,0.2946,0.2945,0.2943,0.2916,0.2925,0.2896,0.2901,0.2917,0.2902,0.2902,0.288,0.2877,0.287,0.2848,0.2846,0.2855,0.2854,0.2853,0.2853,0,0,0,0,0,0,0,0.2987,0.2983,0.2943,0.2946,0.2944,0.2939,0.2934,0.2919,0.2899,0.2916,0.2914,0.291,0.2879,0.2871,0.2869,0.2845,0.2855,0.2854,0.2853,0.2852,0.2809,0.2809,0,0,0,0,0,0,0.2992,0.2985,0.2944,0.2942,0.2964,0.2938,0.2933,0.2924,0.2899,0.2895,0.291,0.2909,0.2874,0.2871,0.2867,0.2851,0.2853,0.2852,0.2851,0.2809,0.2809,0.2809,0,0,0,0,0,0,0.2993,0.2988,0.2946,0.2963,0.2957,0.2937,0.2927,0.2924,0.2916,0.2895,0.2891,0.2906,0.2874,0.287,0.2853,0.285,0.2851,0.285,0.281,0.2809,0.2809,0.282,0,0,0,0,0,0,0.2995,0.2989,0.2985,0.2963,0.2956,0.2933,0.2927,0.2923,0.2913,0.2912,0.289,0.2886,0.2874,0.2856,0.2852,0.2847,0.2848,0.281,0.2809,0.2809,0.282,0.282,0.282,0,0,0,0,0,0.2997,0.2991,0.2985,0.2981,0.2952,0.2933,0.2929,0.2915,0.2913,0.2909,0.2895,0.2887,0.2851,0.2854,0.285,0.2845,0.281,0.2809,0.2809,0.282,0.282,0.282,0,0,0,0,0,0,0.3014,0.2988,0.2981,0.2968,0.2953,0.293,0.2925,0.2916,0.2901,0.2901,0.2884,0.2879,0.2863,0.2853,0.2857,0.2831,0.2829,0.2828,0.2839,0.2839,0.284,0.2842,0.2847,0,0,0,0,0,0.3016,0.3004,0.2981,0.2972,0.2964,0.2946,0.2937,0.2927,0.2911,0.2904,0.2889,0.2873,0.2857,0.2848,0.2833,0.2818,0.2812,0.2812,0.2813,0.2813,0.2812,0.28,0.2799,0.2808,0.2808,0.2808,0,0,0.302,0.3005,0.2998,0.2975,0.2962,0.2948,0.2941,0.2927,0.2917,0.2902,0.2885,0.2873,0.2854,0.2838,0.283,0.2828,0.2808,0.2812,0.2813,0.2811,0.2799,0.2799,0.2798,0.2807,0.2807,0.2807,0,0,0.3021,0.3009,0.2998,0.2985,0.2965,0.2952,0.295,0.2928,0.2919,0.2902,0.289,0.2876,0.2851,0.2837,0.2827,0.2819,0.281,0.2815,0.2816,0.2805,0.2804,0.2803,0.2798,0.2797,0.2814,0.2814,0.2814,0,0.303,0.3009,0.2994,0.2981,0.297,0.2955,0.2943,0.2931,0.2907,0.29,0.2898,0.2864,0.285,0.2829,0.2827,0.2819,0.2814,0.2817,0.2805,0.2804,0.2804,0.2799,0.2797,0.2814,0.2814,0.2814,0.2814,0,0.3019,0.3005,0.2999,0.2975,0.2964,0.2951,0.2933,0.2922,0.2913,0.29,0.2881,0.2863,0.2843,0.2837,0.2829,0.2814,0.2813,0.2809,0.2806,0.2803,0.2798,0.2797,0.2815,0.2815,0.2814,0.2814,0,0,0.3031,0.2998,0.2995,0.2983,0.2959,0.2947,0.2933,0.2913,0.2903,0.2887,0.2873,0.2851,0.2845,0.2833,0.2823,0.2813,0.2805,0.2809,0.2808,0.2807,0.2785,0.2787,0.2785,0.2799,0.2799,0.2799,0.2786,0,0.3028,0.3002,0.2986,0.2966,0.2952,0.2936,0.2924,0.2906,0.2893,0.2878,0.2863,0.2847,0.2842,0.2834,0.2824,0.2808,0.28,0.2809,0.2785,0.2784,0.2789,0.2783,0.2787,0.2775,0.2784,0.2783,0.2783,0,0.3021,0.3003,0.2982,0.2956,0.2949,0.2938,0.2917,0.2903,0.2883,0.2873,0.2859,0.2847,0.2829,0.2828,0.2803,0.2809,0.2798,0.2788,0.2787,0.2784,0.2783,0.2778,0.2772,0.2769,0.278,0.2781,0.2781,0,0.3029,0.3,0.2983,0.2973,0.2944,0.2936,0.2923,0.2903,0.2891,0.2872,0.2863,0.2843,0.2831,0.2815,0.2797,0.2798,0.2772,0.277,0.2762,0.2763,0.2757,0.2758,0.2747,0.2752,0.2752,0.2752,0.2752,0,0.3026,0.3013,0.2986,0.2975,0.2959,0.2941,0.2925,0.2911,0.2892,0.2877,0.2863,0.2849,0.2827,0.281,0.2796,0.2775,0.277,0.2761,0.2757,0.2762,0.2763,0.2754,0.2753,0.2752,0.2752,0.2752,0.2752,0,0.3033,0.3015,0.2994,0.2968,0.296,0.2949,0.2926,0.2914,0.2899,0.288,0.2874,0.2851,0.2829,0.281,0.2782,0.2772,0.275,0.2747,0.2757,0.2755,0.2748,0.2748,0.273,0.2726,0.2735,0.2735,0.2735,0,0.3032,0.3021,0.2993,0.2981,0.2969,0.2951,0.2938,0.2919,0.2906,0.2879,0.287,0.2847,0.2828,0.2794,0.2774,0.2752,0.2746,0.2741,0.2743,0.2746,0.2744,0.2744,0.2742,0.2741,0.2741,0.2741,0.2741,0,0.3031,0.3022,0.3004,0.2982,0.2967,0.2949,0.293,0.2921,0.2898,0.2884,0.2861,0.2846,0.2816,0.2793,0.2768,0.2753,0.2743,0.2741,0.2738,0.2741,0.2747,0.2742,0.2756,0.2742,0.2742,0.2742,0.2742,0.2742,0.3033,0.3022,0.2999,0.2979,0.2962,0.2944,0.2931,0.2913,0.2895,0.2869,0.2858,0.2835,0.2811,0.2776,0.2761,0.2741,0.2739,0.2735,0.2734,0.2733,0.2732,0.2751,0.2737,0.2737,0.2737,0.2737,0.2737,0,0.303,0.3014,0.2995,0.2969,0.2952,0.2944,0.2921,0.2908,0.2887,0.2867,0.2847,0.282,0.2797,0.2774,0.2749,0.2737,0.2731,0.2731,0.2731,0.2727,0.2737,0.2741,0.2736,0.2736,0.2736,0.2736,0.2736,0.2736,0.3026,0.3006,0.2993,0.2964,0.2947,0.2924,0.2912,0.2895,0.2878,0.2848,0.2828,0.2813,0.279,0.2763,0.2741,0.2734,0.2725,0.2725,0.2718,0.2727,0.2727,0.2727,0.2731,0.2724,0.2724,0.2709,0.2709,0.2709]}]]